{"data":{"norad_id":63840,"intl_designator":"2025-093E","name":"STARLINK-33990","alt_names":[],"object_type":"PAYLOAD","status":"ACTIVE","operator":null,"country":"US","launch_date":"2025-05-07","launch_site_code":"AFETR","launch_vehicle":null,"mission":null,"orbit_class":"UNKNOWN","rcs_meters":null,"size_class":null,"mass_kg":null,"dimensions":null,"purposes":["comms"],"wikipedia_slug":null,"has_3d_model":false,"image_url":null,"decayed_at":null,"tle_current":{"epoch":"2026-09-19T04:11:15.606816Z","epoch_age_seconds":264420,"freshness":"STALE","line1":"1 63840U 25093E   26262.17448619  .00014322  00000+0  52875-3 0  9999","line2":"2 63840  43.0035  65.1500 0001094 268.3845  91.6882 15.27593978 77346","mean_motion":15.27593978,"eccentricity":0.0001094,"inclination_deg":43.0035,"raan_deg":65.15,"arg_perigee_deg":268.3845,"mean_anomaly_deg":91.6882,"bstar":0.00052875,"rev_number":7734,"period_min":94.265886141114,"perigee_km":482.25663201826,"apogee_km":483.75785037824,"semimajor_km":6861.1442411983,"source":"CELESTRAK","updated_at":"2026-09-21T09:00:35.131674Z"}}}